Regional Weather Roundup
Issued by NWS

Home | Current Version | Previous Version | Graphics & Text | Print | Product List | Glossary Off
Versions: 1 2 3 4 5 6 7 8 9 10 11 12 13 14 15 16 17 18 19 20 21 22 23 24 25 26 27 28 29 30 31 32 33 34 35 36 37 38 39 40 41 42 43 44 45 46 47 48 49 50

000
ASUS43 KTOP 210508
RWRKS

WEATHER ROUNDUP FOR KANSAS
NATIONAL WEATHER SERVICE GOODLAND KS
1200 AM CDT SUN SEP 21 2014

NOTE:  "FAIR" INDICATES FEW OR NO CLOUDS BELOW 12,000 FEET WITH NO
SIGNIFICANT WEATHER AND/OR OBSTRUCTIONS TO VISIBILITY.

KSZ001>006-013>018-027>032-041>047-210600-
NORTHWEST KANSAS

CITY           SKY/WX    TMP DP  RH WIND       PRES   REMARKS
GOODLAND       CLEAR     58  52  80 W5        30.23R HAZE
HAYS           CLEAR     68  57  68 NE9       30.11R
HILL CITY      PTCLDY    64  53  67 N6        30.15R
RUSSELL        CLEAR     68  61  78 E7        30.09R
$$

KSZ061>065-074>080-084>089-210600-
SOUTHWEST KANSAS

CITY           SKY/WX    TMP DP  RH WIND       PRES   REMARKS
DODGE CITY     MOCLDY    74  65  73 NE12      30.12R
ELKHART          N/A     70  60  70 NE6         N/A
GARDEN CITY    CLEAR     69  61  75 NE12      30.14R
GREAT BEND     PTCLDY    70  64  83 NE6       30.09S
LIBERAL        MOCLDY    77  63  61 E10       30.13R
PRATT          MOCLDY    72  63  73 NW6       30.06F
$$

KSZ066>073-081>083-090>101-210600-
SOUTHEAST KANSAS

CITY           SKY/WX    TMP DP  RH WIND       PRES   REMARKS
CHANUTE        CLOUDY    73  70  90 W6        30.02R
HUTCHINSON     CLOUDY    73  66  78 N5        30.04R
MEDICINE LODGE   N/A     75  64  68 N6        30.02R
NEWTON         CLOUDY    70  64  83 NE3       30.07S
PARSONS        CLOUDY    74  70  87 SW5       30.02R
WICHITA INTL   CLOUDY    75  69  81 NE6       30.04R
WICHITA JABRA  CLOUDY    72  67  84 E6        30.04R
WICHITA MCCONL CLOUDY    75  69  82 NE8       30.05R
WINFIELD       MOCLDY    76  67  73 NE7       30.05R
$$

KSZ007>012-019>026-033>040-048>060-102>105-210600-
NORTHEAST KANSAS

CITY           SKY/WX    TMP DP  RH WIND       PRES   REMARKS
CONCORDIA      CLEAR     66  61  84 NW5       30.09R
EMPORIA        PTCLDY    69  67  93 CALM      30.03R
LAWRENCE       FOG       64  62  93 NW3       30.01R VSB 1/4
MANHATTAN      CLEAR     65  64  97 CALM      30.03R
MARYSVILLE     CLEAR     64  61  88 NW7       30.07R
OLATHE IND     CLEAR     68  67  96 SW5       30.01S
OLATHE EXE     CLEAR     71  68  90 NW5       30.00S
SALINA         CLEAR     70  67  90 NW5       30.05S
TOPEKA BILLARD FOG       67  67 100 CALM      30.02R VSB 3/4
TOPEKA FORBES  CLEAR     65  63  93 W5        30.02R
$$


USA.gov is the U.S. government's official web portal to all federal, state and local government web resources and services.